Location: Schommer Observatory
(40.5200°N, 74.4500°W)
Time: 17:46:49
(UTC-04:00)

Envisat - Visible Passes

Search period start: 18 September 2018 00:00
Search period end: 28 September 2018 00:00
Orbit: 764 x 766 km, 98.2° (Epoch: 18 September)

Date Brightness Start Highest point End Pass type
(mag) Time Alt. Az. Time Alt. Az. Time Alt. Az.
18 Sep 4.5 20:42:41 10° SSW 20:47:18 35° W 20:51:57 10° NNW visible
19 Sep 3.1 20:05:23 10° S 20:10:27 80° WSW 20:15:34 10° NNW visible
20 Sep 3.3 19:28:59 10° SE 19:33:49 46° ENE 19:38:40 10° N visible
20 Sep 5.4 21:09:22 10° SW 21:13:03 20° W 21:16:45 10° NW visible
21 Sep 4.1 20:31:14 10° S 20:36:05 44° W 20:40:56 10° NNW visible
22 Sep 2.9 19:54:13 10° SSE 19:59:17 82° ENE 20:04:24 10° N visible
22 Sep 6.0 21:37:38 10° WSW 21:38:54 11° W 21:40:10 10° WNW visible
23 Sep 3.6 19:18:05 10° SE 19:22:42 37° ENE 19:27:21 10° N visible
23 Sep 5.1 20:57:37 10° SSW 21:01:47 25° W 21:05:58 10° NW visible
24 Sep 3.6 20:19:53 10° S 20:24:52 57° W 20:29:53 10° NNW visible
25 Sep 3.0 19:43:07 10° SSE 19:48:08 64° ENE 19:53:10 10° N visible
25 Sep 5.8 21:24:55 10° WSW 21:27:35 14° W 21:30:17 10° WNW visible
26 Sep 4.7 20:46:02 10° SSW 20:50:32 32° W 20:55:04 10° NNW visible
27 Sep 3.2 20:08:37 10° S 20:13:40 73° WSW 20:18:46 10° NNW visible
